Location: Beuvrequen
(50.8014°N, 1.6652°E)
Time: 21:49:11
(UTC+00:00)

Cosmos 1844 Rocket - Pass Details

Date: 16 October 2021
Orbit: 826 x 843 km, 71.0° (Epoch: 04 December)

Event Time Altitude Azimuth Distance (km) Brightness Sun altitude
Rises 17:52:54 0° 331° (NNW) 3,382 6.2 -9.3°
Reaches altitude 10° 17:56:12 10° 351° (N) 2,443 5.2 -9.8°
Maximum altitude 17:59:54 18° 32° (NNE) 1,952 4.3 -10.4°
Enters shadow 18:02:54 12° 68° (ENE) 2,281 4.4 -10.9°
